Year,Month,Day,Hour,Minute,Value (Times are PST for temperature in C)
2015,03,07,00,00,5.60
2015,03,07,00,01,5.60
2015,03,07,00,02,5.60
2015,03,07,00,03,5.60
2015,03,07,00,04,5.60
2015,03,07,00,05,5.60
2015,03,07,00,06,5.60
2015,03,07,00,07,5.60
2015,03,07,00,08,5.60
2015,03,07,00,09,5.60
2015,03,07,00,10,5.60
2015,03,07,00,11,5.60
2015,03,07,00,12,5.50
2015,03,07,00,13,5.50
2015,03,07,00,14,5.50
2015,03,07,00,15,5.50
2015,03,07,00,16,5.50
2015,03,07,00,17,5.50
2015,03,07,00,18,5.50
2015,03,07,00,19,5.50
2015,03,07,00,20,5.40
2015,03,07,00,21,5.40
2015,03,07,00,22,5.40
2015,03,07,00,23,5.40
2015,03,07,00,24,5.40
2015,03,07,00,25,5.40
2015,03,07,00,26,5.30
2015,03,07,00,27,5.30
2015,03,07,00,28,5.30
2015,03,07,00,29,5.30
2015,03,07,00,30,5.30
2015,03,07,00,31,5.30
2015,03,07,00,32,5.30
2015,03,07,00,33,5.30
2015,03,07,00,34,5.30
2015,03,07,00,35,5.30
2015,03,07,00,36,5.30
2015,03,07,00,37,5.30
2015,03,07,00,38,5.30
2015,03,07,00,39,5.30
2015,03,07,00,40,5.30
2015,03,07,00,41,5.20
2015,03,07,00,42,5.20
2015,03,07,00,43,5.20
2015,03,07,00,44,5.20
2015,03,07,00,45,5.20
2015,03,07,00,46,5.20
2015,03,07,00,47,5.20
2015,03,07,00,48,5.20
2015,03,07,00,49,5.20
2015,03,07,00,50,5.20
2015,03,07,00,51,5.20
2015,03,07,00,52,5.20
2015,03,07,00,53,5.20
2015,03,07,00,54,5.20
2015,03,07,00,55,5.20
2015,03,07,00,56,5.10
2015,03,07,00,57,5.10
2015,03,07,00,58,5.10
2015,03,07,00,59,5.10
2015,03,07,01,00,5.10
2015,03,07,01,01,5.10
2015,03,07,01,02,5.00
2015,03,07,01,03,5.00
2015,03,07,01,04,5.00
2015,03,07,01,05,5.00
2015,03,07,01,06,4.90
2015,03,07,01,07,4.90
2015,03,07,01,08,4.90
2015,03,07,01,09,4.90
2015,03,07,01,10,4.90
2015,03,07,01,11,4.90
2015,03,07,01,12,4.90
2015,03,07,01,13,4.90
2015,03,07,01,14,4.90
2015,03,07,01,15,4.90
2015,03,07,01,16,5.00
2015,03,07,01,17,5.00
2015,03,07,01,18,5.00
2015,03,07,01,19,5.00
2015,03,07,01,20,5.00
2015,03,07,01,21,5.00
2015,03,07,01,22,5.00
2015,03,07,01,23,5.00
2015,03,07,01,24,5.00
2015,03,07,01,25,5.00
2015,03,07,01,26,5.10
2015,03,07,01,27,5.10
2015,03,07,01,28,5.10
2015,03,07,01,29,5.10
2015,03,07,01,30,5.10
2015,03,07,01,31,5.10
2015,03,07,01,32,5.10
2015,03,07,01,33,5.10
2015,03,07,01,34,5.10
2015,03,07,01,35,5.10
2015,03,07,01,36,5.10
2015,03,07,01,37,5.10
2015,03,07,01,38,5.10
2015,03,07,01,39,5.00
2015,03,07,01,40,5.00
2015,03,07,01,41,5.00
2015,03,07,01,42,5.00
2015,03,07,01,43,5.00
2015,03,07,01,44,5.00
2015,03,07,01,45,5.00
2015,03,07,01,46,4.90
2015,03,07,01,47,4.90
2015,03,07,01,48,4.90
2015,03,07,01,49,4.90
2015,03,07,01,50,4.90
2015,03,07,01,51,4.90
2015,03,07,01,52,4.90
2015,03,07,01,53,4.90
2015,03,07,01,54,4.90
2015,03,07,01,55,4.90
2015,03,07,01,56,4.90
2015,03,07,01,57,4.90
2015,03,07,01,58,4.90
2015,03,07,01,59,4.90
2015,03,07,02,00,4.90
2015,03,07,02,01,4.90
2015,03,07,02,02,4.90
2015,03,07,02,03,5.00
2015,03,07,02,04,5.00
2015,03,07,02,05,5.00
2015,03,07,02,06,5.00
2015,03,07,02,07,5.00
2015,03,07,02,08,5.00
2015,03,07,02,09,5.00
2015,03,07,02,10,5.00
2015,03,07,02,11,5.00
2015,03,07,02,12,5.00
2015,03,07,02,13,5.00
2015,03,07,02,14,5.00
2015,03,07,02,15,5.00
2015,03,07,02,16,5.10
2015,03,07,02,17,5.10
2015,03,07,02,18,5.10
2015,03,07,02,19,5.10
2015,03,07,02,20,5.10
2015,03,07,02,21,5.20
2015,03,07,02,22,5.20
2015,03,07,02,23,5.20
2015,03,07,02,24,5.20
2015,03,07,02,25,5.20
2015,03,07,02,26,5.30
2015,03,07,02,27,5.30
2015,03,07,02,28,5.30
2015,03,07,02,29,5.30
2015,03,07,02,30,5.30
2015,03,07,02,31,5.30
2015,03,07,02,32,5.30
2015,03,07,02,33,5.30
2015,03,07,02,34,5.40
2015,03,07,02,35,5.40
2015,03,07,02,36,5.40
2015,03,07,02,37,5.40
2015,03,07,02,38,5.40
2015,03,07,02,39,5.40
2015,03,07,02,40,5.40
2015,03,07,02,41,5.40
2015,03,07,02,42,5.40
2015,03,07,02,43,5.30
2015,03,07,02,44,5.30
2015,03,07,02,45,5.30
2015,03,07,02,46,5.30
2015,03,07,02,47,5.30
2015,03,07,02,48,5.30
2015,03,07,02,49,5.30
2015,03,07,02,50,5.30
2015,03,07,02,51,5.30
2015,03,07,02,52,5.30
2015,03,07,02,53,5.30
2015,03,07,02,54,5.30
2015,03,07,02,55,5.30
2015,03,07,02,56,5.30
2015,03,07,02,57,5.30
2015,03,07,02,58,5.30
2015,03,07,02,59,5.30
2015,03,07,03,00,5.30
2015,03,07,03,01,5.30
2015,03,07,03,02,5.30
2015,03,07,03,03,5.30
2015,03,07,03,04,5.30
2015,03,07,03,05,5.30
2015,03,07,03,06,5.20
2015,03,07,03,07,5.20
2015,03,07,03,08,5.20
2015,03,07,03,09,5.20
2015,03,07,03,10,5.10
2015,03,07,03,11,5.10
2015,03,07,03,12,5.10
2015,03,07,03,13,5.10
2015,03,07,03,14,5.10
2015,03,07,03,15,5.10
2015,03,07,03,16,5.10
2015,03,07,03,17,5.10
2015,03,07,03,18,5.00
2015,03,07,03,19,5.00
2015,03,07,03,20,5.00
2015,03,07,03,21,5.00
2015,03,07,03,22,5.00
2015,03,07,03,23,4.90
2015,03,07,03,24,4.90
2015,03,07,03,25,4.90
2015,03,07,03,26,4.90
2015,03,07,03,27,4.90
2015,03,07,03,28,4.90
2015,03,07,03,29,5.00
2015,03,07,03,30,5.00
2015,03,07,03,31,5.00
2015,03,07,03,32,5.00
2015,03,07,03,33,5.00
2015,03,07,03,34,5.00
2015,03,07,03,35,5.10
2015,03,07,03,36,5.10
2015,03,07,03,37,5.10
2015,03,07,03,38,5.10
2015,03,07,03,39,5.10
2015,03,07,03,40,5.10
2015,03,07,03,41,5.10
2015,03,07,03,42,5.00
2015,03,07,03,43,5.00
2015,03,07,03,44,5.00
2015,03,07,03,45,5.00
2015,03,07,03,46,5.00
2015,03,07,03,47,5.00
2015,03,07,03,48,4.90
2015,03,07,03,49,4.90
2015,03,07,03,50,4.90
2015,03,07,03,51,4.90
2015,03,07,03,52,4.90
2015,03,07,03,53,4.80
2015,03,07,03,54,4.80
2015,03,07,03,55,4.80
2015,03,07,03,56,4.80
2015,03,07,03,57,4.80
2015,03,07,03,58,4.80
2015,03,07,03,59,4.80
2015,03,07,04,00,4.80
2015,03,07,04,01,4.80
2015,03,07,04,02,4.70
2015,03,07,04,03,4.70
2015,03,07,04,04,4.70
2015,03,07,04,05,4.70
2015,03,07,04,06,4.70
2015,03,07,04,07,4.60
2015,03,07,04,08,4.60
2015,03,07,04,09,4.60
2015,03,07,04,10,4.60
2015,03,07,04,11,4.60
2015,03,07,04,12,4.60
2015,03,07,04,13,4.60
2015,03,07,04,14,4.60
2015,03,07,04,15,4.60
2015,03,07,04,16,4.60
2015,03,07,04,17,4.60
2015,03,07,04,18,4.60
2015,03,07,04,19,4.60
2015,03,07,04,20,4.60
2015,03,07,04,21,4.60
2015,03,07,04,22,4.60
2015,03,07,04,23,4.60
2015,03,07,04,24,4.60
2015,03,07,04,25,4.60
2015,03,07,04,26,4.60
2015,03,07,04,27,4.60
2015,03,07,04,28,4.60
2015,03,07,04,29,4.60
2015,03,07,04,30,4.60
2015,03,07,04,31,4.60
2015,03,07,04,32,4.60
2015,03,07,04,33,4.60
2015,03,07,04,34,4.60
2015,03,07,04,35,4.60
2015,03,07,04,36,4.60
2015,03,07,04,37,4.60
2015,03,07,04,38,4.60
2015,03,07,04,39,4.60
2015,03,07,04,40,4.60
2015,03,07,04,41,4.60
2015,03,07,04,42,4.60
2015,03,07,04,43,4.60
2015,03,07,04,44,4.60
2015,03,07,04,45,4.60
2015,03,07,04,46,4.60
2015,03,07,04,47,4.60
2015,03,07,04,48,4.60
2015,03,07,04,49,4.50
2015,03,07,04,50,4.50
2015,03,07,04,51,4.50
2015,03,07,04,52,4.50
2015,03,07,04,53,4.50
2015,03,07,04,54,4.50
2015,03,07,04,55,4.50
2015,03,07,04,56,4.50
2015,03,07,04,57,4.40
2015,03,07,04,58,4.40
2015,03,07,04,59,4.40
2015,03,07,05,00,4.40
2015,03,07,05,01,4.40
2015,03,07,05,02,4.40
2015,03,07,05,03,4.40
2015,03,07,05,04,4.40
2015,03,07,05,05,4.40
2015,03,07,05,06,4.40
2015,03,07,05,07,4.40
2015,03,07,05,08,4.30
2015,03,07,05,09,4.30
2015,03,07,05,10,4.30
2015,03,07,05,11,4.30
2015,03,07,05,12,4.30
2015,03,07,05,13,4.30
2015,03,07,05,14,4.30
2015,03,07,05,15,4.30
2015,03,07,05,16,4.30
2015,03,07,05,17,4.30
2015,03,07,05,18,4.20
2015,03,07,05,19,4.20
2015,03,07,05,20,4.20
2015,03,07,05,21,4.20
2015,03,07,05,22,4.20
2015,03,07,05,23,4.20
2015,03,07,05,24,4.20
2015,03,07,05,25,4.20
2015,03,07,05,26,4.20
2015,03,07,05,27,4.10
2015,03,07,05,28,4.10
2015,03,07,05,29,4.10
2015,03,07,05,30,4.10
2015,03,07,05,31,4.10
2015,03,07,05,32,4.20
2015,03,07,05,33,4.20
2015,03,07,05,34,4.20
2015,03,07,05,35,4.20
2015,03,07,05,36,4.20
2015,03,07,05,37,4.20
2015,03,07,05,38,4.20
2015,03,07,05,39,4.20
2015,03,07,05,40,4.30
2015,03,07,05,41,4.30
2015,03,07,05,42,4.20
2015,03,07,05,43,4.20
2015,03,07,05,44,4.20
2015,03,07,05,45,4.20
2015,03,07,05,46,4.20
2015,03,07,05,47,4.20
2015,03,07,05,48,4.20
2015,03,07,05,49,4.20
2015,03,07,05,50,4.10
2015,03,07,05,51,4.10
2015,03,07,05,52,4.10
2015,03,07,05,53,4.10
2015,03,07,05,54,4.10
2015,03,07,05,55,4.10
2015,03,07,05,56,4.10
2015,03,07,05,57,4.10
2015,03,07,05,58,4.10
2015,03,07,05,59,4.10
2015,03,07,06,00,4.10
2015,03,07,06,01,4.10
2015,03,07,06,02,4.10
2015,03,07,06,03,4.10
2015,03,07,06,04,4.10
2015,03,07,06,05,4.10
2015,03,07,06,06,4.10
2015,03,07,06,07,4.10
2015,03,07,06,08,4.10
2015,03,07,06,09,4.00
2015,03,07,06,10,4.00
2015,03,07,06,11,4.00
2015,03,07,06,12,4.00
2015,03,07,06,13,4.00
2015,03,07,06,14,3.90
2015,03,07,06,15,3.90
2015,03,07,06,16,3.90
2015,03,07,06,17,3.90
2015,03,07,06,18,3.90
2015,03,07,06,19,3.90
2015,03,07,06,20,3.80
2015,03,07,06,21,3.80
2015,03,07,06,22,3.80
2015,03,07,06,23,3.80
2015,03,07,06,24,3.80
2015,03,07,06,25,3.80
2015,03,07,06,26,3.80
2015,03,07,06,27,3.80
2015,03,07,06,28,3.80
2015,03,07,06,29,3.80
2015,03,07,06,30,3.90
2015,03,07,06,31,3.90
2015,03,07,06,32,3.90
2015,03,07,06,33,3.90
2015,03,07,06,34,3.90
2015,03,07,06,35,3.90
2015,03,07,06,36,3.90
2015,03,07,06,37,3.90
2015,03,07,06,38,3.90
2015,03,07,06,39,3.90
2015,03,07,06,40,3.90
2015,03,07,06,41,3.90
2015,03,07,06,42,3.90
2015,03,07,06,43,3.90
2015,03,07,06,44,3.90
2015,03,07,06,45,3.80
2015,03,07,06,46,3.80
2015,03,07,06,47,3.80
2015,03,07,06,48,3.80
2015,03,07,06,49,3.80
2015,03,07,06,50,3.80
2015,03,07,06,51,3.80
2015,03,07,06,52,3.80
2015,03,07,06,53,3.70
2015,03,07,06,54,3.70
2015,03,07,06,55,3.70
2015,03,07,06,56,3.70
2015,03,07,06,57,3.70
2015,03,07,06,58,3.70
2015,03,07,06,59,3.70
2015,03,07,07,00,3.70
2015,03,07,07,01,3.70
2015,03,07,07,02,3.80
2015,03,07,07,03,3.80
2015,03,07,07,04,3.90
2015,03,07,07,05,3.90
2015,03,07,07,06,4.00
2015,03,07,07,07,4.10
2015,03,07,07,08,4.10
2015,03,07,07,09,4.10
2015,03,07,07,10,4.10
2015,03,07,07,11,4.10
2015,03,07,07,12,4.10
2015,03,07,07,13,4.10
2015,03,07,07,14,4.20
2015,03,07,07,15,4.20
2015,03,07,07,16,4.20
2015,03,07,07,17,4.20
2015,03,07,07,18,4.20
2015,03,07,07,19,4.20
2015,03,07,07,20,4.20
2015,03,07,07,21,4.30
2015,03,07,07,22,4.40
2015,03,07,07,23,4.40
2015,03,07,07,24,4.40
2015,03,07,07,25,4.40
2015,03,07,07,26,4.40
2015,03,07,07,27,4.40
2015,03,07,07,28,4.40
2015,03,07,07,29,4.40
2015,03,07,07,30,4.40
2015,03,07,07,31,4.40
2015,03,07,07,32,4.40
2015,03,07,07,33,4.40
2015,03,07,07,34,4.40
2015,03,07,07,35,4.40
2015,03,07,07,36,4.40
2015,03,07,07,37,4.40
2015,03,07,07,38,4.40
2015,03,07,07,39,4.50
2015,03,07,07,40,4.50
2015,03,07,07,41,4.60
2015,03,07,07,42,4.60
2015,03,07,07,43,4.60
2015,03,07,07,44,4.70
2015,03,07,07,45,4.60
2015,03,07,07,46,4.60
2015,03,07,07,47,4.60
2015,03,07,07,48,4.60
2015,03,07,07,49,4.60
2015,03,07,07,50,4.50
2015,03,07,07,51,4.50
2015,03,07,07,52,4.50
2015,03,07,07,53,4.50
2015,03,07,07,54,4.50
2015,03,07,07,55,4.60
2015,03,07,07,56,4.60
2015,03,07,07,57,4.60
2015,03,07,07,58,4.70
2015,03,07,07,59,4.70
2015,03,07,08,00,4.70
2015,03,07,08,01,4.70
2015,03,07,08,02,4.70
2015,03,07,08,03,4.80
2015,03,07,08,04,4.80
2015,03,07,08,05,4.80
2015,03,07,08,06,4.80
2015,03,07,08,07,4.80
2015,03,07,08,08,4.80
2015,03,07,08,09,4.90
2015,03,07,08,10,4.90
2015,03,07,08,11,4.90
2015,03,07,08,12,5.00
2015,03,07,08,13,5.00
2015,03,07,08,14,5.10
2015,03,07,08,15,5.10
2015,03,07,08,16,5.10
2015,03,07,08,17,5.20
2015,03,07,08,18,5.20
2015,03,07,08,19,5.30
2015,03,07,08,20,5.30
2015,03,07,08,21,5.30
2015,03,07,08,22,5.30
2015,03,07,08,23,5.30
2015,03,07,08,24,5.30
2015,03,07,08,25,5.40
2015,03,07,08,26,5.40
2015,03,07,08,27,5.40
2015,03,07,08,28,5.40
2015,03,07,08,29,5.40
2015,03,07,08,30,5.40
2015,03,07,08,31,5.50
2015,03,07,08,32,5.50
2015,03,07,08,33,5.60
2015,03,07,08,34,5.60
2015,03,07,08,35,5.70
2015,03,07,08,36,5.70
2015,03,07,08,37,5.80
2015,03,07,08,38,5.80
2015,03,07,08,39,5.80
2015,03,07,08,40,5.90
2015,03,07,08,41,5.90
2015,03,07,08,42,6.00
2015,03,07,08,43,6.00
2015,03,07,08,44,6.10
2015,03,07,08,45,6.20
2015,03,07,08,46,6.30
2015,03,07,08,47,6.30
2015,03,07,08,48,6.40
2015,03,07,08,49,6.40
2015,03,07,08,50,6.50
2015,03,07,08,51,6.50
2015,03,07,08,52,6.60
2015,03,07,08,53,6.70
2015,03,07,08,54,6.80
2015,03,07,08,55,6.80
2015,03,07,08,56,6.90
2015,03,07,08,57,6.90
2015,03,07,08,58,7.00
2015,03,07,08,59,7.10
2015,03,07,09,00,7.10
2015,03,07,09,01,7.20
2015,03,07,09,02,7.20
2015,03,07,09,03,7.30
2015,03,07,09,04,7.30
2015,03,07,09,05,7.40
2015,03,07,09,06,7.40
2015,03,07,09,07,7.50
2015,03,07,09,08,7.50
2015,03,07,09,09,7.60
2015,03,07,09,10,7.60
2015,03,07,09,11,7.70
2015,03,07,09,12,7.70
2015,03,07,09,13,7.70
2015,03,07,09,14,7.80
2015,03,07,09,15,7.80
2015,03,07,09,16,7.90
2015,03,07,09,17,7.90
2015,03,07,09,18,7.90
2015,03,07,09,19,8.00
2015,03,07,09,20,8.10
2015,03,07,09,21,8.10
2015,03,07,09,22,8.20
2015,03,07,09,23,8.20
2015,03,07,09,24,8.30
2015,03,07,09,25,8.30
2015,03,07,09,26,8.40
2015,03,07,09,27,8.50
2015,03,07,09,28,8.50
2015,03,07,09,29,8.60
2015,03,07,09,30,8.70
2015,03,07,09,31,8.80
2015,03,07,09,32,8.80
2015,03,07,09,33,8.90
2015,03,07,09,34,8.90
2015,03,07,09,35,9.00
2015,03,07,09,36,9.10
2015,03,07,09,37,9.10
2015,03,07,09,38,9.20
2015,03,07,09,39,9.30
2015,03,07,09,40,9.30
2015,03,07,09,41,9.30
2015,03,07,09,42,9.30
2015,03,07,09,43,9.40
2015,03,07,09,44,9.40
2015,03,07,09,45,9.40
2015,03,07,09,46,9.40
2015,03,07,09,47,9.40
2015,03,07,09,48,9.50
2015,03,07,09,49,9.40
2015,03,07,09,50,9.40
2015,03,07,09,51,9.40
2015,03,07,09,52,9.40
2015,03,07,09,53,9.40
2015,03,07,09,54,9.40
2015,03,07,09,55,9.40
2015,03,07,09,56,9.40
2015,03,07,09,57,9.40
2015,03,07,09,58,9.50
2015,03,07,09,59,9.50
2015,03,07,10,00,9.50
2015,03,07,10,01,9.50
2015,03,07,10,02,9.50
2015,03,07,10,03,9.50
2015,03,07,10,04,9.60
2015,03,07,10,05,9.60
2015,03,07,10,06,9.60
2015,03,07,10,07,9.60
2015,03,07,10,08,9.60
2015,03,07,10,09,9.70
2015,03,07,10,10,9.70
2015,03,07,10,11,9.70
2015,03,07,10,12,9.70
2015,03,07,10,13,9.70
2015,03,07,10,14,9.70
2015,03,07,10,15,9.70
2015,03,07,10,16,9.70
2015,03,07,10,17,9.70
2015,03,07,10,18,9.70
2015,03,07,10,19,9.70
2015,03,07,10,20,9.70
2015,03,07,10,21,9.70
2015,03,07,10,22,9.70
2015,03,07,10,23,9.70
2015,03,07,10,24,9.70
2015,03,07,10,25,9.70
2015,03,07,10,26,9.70
2015,03,07,10,27,9.70
2015,03,07,10,28,9.60
2015,03,07,10,29,9.60
2015,03,07,10,30,9.60
2015,03,07,10,31,9.60
2015,03,07,10,32,9.60
2015,03,07,10,33,9.60
2015,03,07,10,34,9.60
2015,03,07,10,35,9.60
2015,03,07,10,36,9.60
2015,03,07,10,37,9.60
2015,03,07,10,38,9.60
2015,03,07,10,39,9.60
2015,03,07,10,40,9.60
2015,03,07,10,41,9.60
2015,03,07,10,42,9.60
2015,03,07,10,43,9.60
2015,03,07,10,44,9.60
2015,03,07,10,45,9.60
2015,03,07,10,46,9.60
2015,03,07,10,47,9.60
2015,03,07,10,48,9.60
2015,03,07,10,49,9.60
2015,03,07,10,50,9.60
2015,03,07,10,51,9.70
2015,03,07,10,52,9.70
2015,03,07,10,53,9.70
2015,03,07,10,54,9.70
2015,03,07,10,55,9.70
2015,03,07,10,56,9.70
2015,03,07,10,57,9.70
2015,03,07,10,58,9.80
2015,03,07,10,59,9.80
2015,03,07,11,00,9.80
2015,03,07,11,01,9.80
2015,03,07,11,02,9.80
2015,03,07,11,03,9.90
2015,03,07,11,04,9.90
2015,03,07,11,05,9.90
2015,03,07,11,06,9.90
2015,03,07,11,07,9.80
2015,03,07,11,08,9.80
2015,03,07,11,09,9.80
2015,03,07,11,10,9.80
2015,03,07,11,11,9.90
2015,03,07,11,12,9.90
2015,03,07,11,13,9.90
2015,03,07,11,14,10.00
2015,03,07,11,15,9.90
2015,03,07,11,16,10.00
2015,03,07,11,17,10.00
2015,03,07,11,18,10.10
2015,03,07,11,19,10.20
2015,03,07,11,20,10.30
2015,03,07,11,21,10.30
2015,03,07,11,22,10.40
2015,03,07,11,23,10.40
2015,03,07,11,24,10.50
2015,03,07,11,25,10.60
2015,03,07,11,26,10.60
2015,03,07,11,27,10.60
2015,03,07,11,28,10.70
2015,03,07,11,29,10.70
2015,03,07,11,30,10.60
2015,03,07,11,31,10.60
2015,03,07,11,32,10.60
2015,03,07,11,33,10.70
2015,03,07,11,34,10.60
2015,03,07,11,35,10.60
2015,03,07,11,36,10.50
2015,03,07,11,37,10.50
2015,03,07,11,38,10.50
2015,03,07,11,39,10.50
2015,03,07,11,40,10.50
2015,03,07,11,41,10.50
2015,03,07,11,42,10.40
2015,03,07,11,43,10.40
2015,03,07,11,44,10.30
2015,03,07,11,45,10.30
2015,03,07,11,46,10.30
2015,03,07,11,47,10.20
2015,03,07,11,48,10.20
2015,03,07,11,49,10.10
2015,03,07,11,50,10.00
2015,03,07,11,51,9.90
2015,03,07,11,52,9.90
2015,03,07,11,53,9.90
2015,03,07,11,54,9.90
2015,03,07,11,55,9.80
2015,03,07,11,56,9.80
2015,03,07,11,57,9.80
2015,03,07,11,58,9.80
2015,03,07,11,59,9.80
2015,03,07,12,00,9.70
2015,03,07,12,01,9.70
2015,03,07,12,02,9.70
2015,03,07,12,03,9.60
2015,03,07,12,04,9.50
2015,03,07,12,05,9.50
2015,03,07,12,06,9.50
2015,03,07,12,07,9.40
2015,03,07,12,08,9.40
2015,03,07,12,09,9.40
2015,03,07,12,10,9.40
2015,03,07,12,11,9.40
2015,03,07,12,12,9.30
2015,03,07,12,13,9.30
2015,03,07,12,14,9.30
2015,03,07,12,15,9.30
2015,03,07,12,16,9.30
2015,03,07,12,17,9.20
2015,03,07,12,18,9.20
2015,03,07,12,19,9.20
2015,03,07,12,20,9.20
2015,03,07,12,21,9.20
2015,03,07,12,22,9.20
2015,03,07,12,23,9.20
2015,03,07,12,24,9.20
2015,03,07,12,25,9.20
2015,03,07,12,26,9.20
2015,03,07,12,27,9.10
2015,03,07,12,28,9.10
2015,03,07,12,29,9.10
2015,03,07,12,30,9.10
2015,03,07,12,31,9.20
2015,03,07,12,32,9.20
2015,03,07,12,33,9.20
2015,03,07,12,34,9.20
2015,03,07,12,35,9.20
2015,03,07,12,36,9.10
2015,03,07,12,37,9.10
2015,03,07,12,38,9.00
2015,03,07,12,39,9.00
2015,03,07,12,40,9.00
2015,03,07,12,41,9.00
2015,03,07,12,42,9.10
2015,03,07,12,43,9.10
2015,03,07,12,44,9.20
2015,03,07,12,45,9.20
2015,03,07,12,46,9.30
2015,03,07,12,47,9.30
2015,03,07,12,48,9.30
2015,03,07,12,49,9.30
2015,03,07,12,50,9.30
2015,03,07,12,51,9.30
2015,03,07,12,52,9.20
2015,03,07,12,53,9.20
2015,03,07,12,54,9.20
2015,03,07,12,55,9.20
2015,03,07,12,56,9.20
2015,03,07,12,57,9.30
2015,03,07,12,58,9.40
2015,03,07,12,59,9.50
2015,03,07,13,00,9.50
2015,03,07,13,01,9.50
2015,03,07,13,02,9.40
2015,03,07,13,03,9.40
2015,03,07,13,04,9.40
2015,03,07,13,05,9.40
2015,03,07,13,06,9.40
2015,03,07,13,07,9.40
2015,03,07,13,08,9.40
2015,03,07,13,09,9.40
2015,03,07,13,10,9.40
2015,03,07,13,11,9.40
2015,03,07,13,12,9.50
2015,03,07,13,13,9.50
2015,03,07,13,14,9.50
2015,03,07,13,15,9.50
2015,03,07,13,16,9.50
2015,03,07,13,17,9.50
2015,03,07,13,18,9.40
2015,03,07,13,19,9.50
2015,03,07,13,20,9.50
2015,03,07,13,21,9.40
2015,03,07,13,22,9.40
2015,03,07,13,23,9.40
2015,03,07,13,24,9.40
2015,03,07,13,25,9.30
2015,03,07,13,26,9.30
2015,03,07,13,27,9.40
2015,03,07,13,28,9.40
2015,03,07,13,29,9.40
2015,03,07,13,30,9.30
2015,03,07,13,31,9.20
2015,03,07,13,32,9.20
2015,03,07,13,33,9.20
2015,03,07,13,34,9.10
2015,03,07,13,35,9.10
2015,03,07,13,36,9.10
2015,03,07,13,37,9.20
2015,03,07,13,38,9.20
2015,03,07,13,39,9.30
2015,03,07,13,40,9.30
2015,03,07,13,41,9.40
2015,03,07,13,42,9.50
2015,03,07,13,43,9.60
2015,03,07,13,44,9.70
2015,03,07,13,45,9.80
2015,03,07,13,46,9.90
2015,03,07,13,47,9.90
2015,03,07,13,48,10.00
2015,03,07,13,49,10.00
2015,03,07,13,50,10.10
2015,03,07,13,51,10.20
2015,03,07,13,52,10.20
2015,03,07,13,53,10.20
2015,03,07,13,54,10.10
2015,03,07,13,55,10.10
2015,03,07,13,56,10.10
2015,03,07,13,57,10.10
2015,03,07,13,58,10.00
2015,03,07,13,59,9.90
2015,03,07,14,00,9.90
2015,03,07,14,01,9.90
2015,03,07,14,02,9.90
2015,03,07,14,03,9.90
2015,03,07,14,04,9.90
2015,03,07,14,05,9.90
2015,03,07,14,06,9.90
2015,03,07,14,07,9.90
2015,03,07,14,08,9.90
2015,03,07,14,09,9.90
2015,03,07,14,10,9.80
2015,03,07,14,11,9.80
2015,03,07,14,12,9.80
2015,03,07,14,13,9.80
2015,03,07,14,14,9.80
2015,03,07,14,15,9.80
2015,03,07,14,16,9.80
2015,03,07,14,17,9.80
2015,03,07,14,18,9.80
2015,03,07,14,19,9.80
2015,03,07,14,20,9.80
2015,03,07,14,21,9.80
2015,03,07,14,22,9.70
2015,03,07,14,23,9.70
2015,03,07,14,24,9.70
2015,03,07,14,25,9.70
2015,03,07,14,26,9.70
2015,03,07,14,27,9.60
2015,03,07,14,28,9.50
2015,03,07,14,29,9.50
2015,03,07,14,30,9.40
2015,03,07,14,31,9.40
2015,03,07,14,32,9.40
2015,03,07,14,33,9.40
2015,03,07,14,34,9.40
2015,03,07,14,35,9.40
2015,03,07,14,36,9.40
2015,03,07,14,37,9.40
2015,03,07,14,38,9.50
2015,03,07,14,39,9.50
2015,03,07,14,40,9.50
2015,03,07,14,41,9.60
2015,03,07,14,42,9.60
2015,03,07,14,43,9.60
2015,03,07,14,44,9.60
2015,03,07,14,45,9.60
2015,03,07,14,46,9.50
2015,03,07,14,47,9.50
2015,03,07,14,48,9.40
2015,03,07,14,49,9.40
2015,03,07,14,50,9.40
2015,03,07,14,51,9.30
2015,03,07,14,52,9.20
2015,03,07,14,53,9.10
2015,03,07,14,54,9.00
2015,03,07,14,55,8.90
2015,03,07,14,56,8.80
2015,03,07,14,57,8.70
2015,03,07,14,58,8.70
2015,03,07,14,59,8.70
2015,03,07,15,00,8.60
2015,03,07,15,01,8.60
2015,03,07,15,02,8.60
2015,03,07,15,03,8.60
2015,03,07,15,04,8.50
2015,03,07,15,05,8.50
2015,03,07,15,06,8.50
2015,03,07,15,07,8.50
2015,03,07,15,08,8.50
2015,03,07,15,09,8.60
2015,03,07,15,10,8.50
2015,03,07,15,11,8.50
2015,03,07,15,12,8.40
2015,03,07,15,13,8.40
2015,03,07,15,14,8.40
2015,03,07,15,15,8.30
2015,03,07,15,16,8.30
2015,03,07,15,17,8.30
2015,03,07,15,18,8.30
2015,03,07,15,19,8.30
2015,03,07,15,20,8.30
2015,03,07,15,21,8.30
2015,03,07,15,22,8.40
2015,03,07,15,23,8.40
2015,03,07,15,24,8.50
2015,03,07,15,25,8.50
2015,03,07,15,26,8.50
2015,03,07,15,27,8.50
2015,03,07,15,28,8.50
2015,03,07,15,29,8.50
2015,03,07,15,30,8.50
2015,03,07,15,31,8.50
2015,03,07,15,32,8.50
2015,03,07,15,33,8.50
2015,03,07,15,34,8.60
2015,03,07,15,35,8.60
2015,03,07,15,36,8.60
2015,03,07,15,37,8.70
2015,03,07,15,38,8.60
2015,03,07,15,39,8.60
2015,03,07,15,40,8.60
2015,03,07,15,41,8.60
2015,03,07,15,42,8.60
2015,03,07,15,43,8.60
2015,03,07,15,44,8.60
2015,03,07,15,45,8.70
2015,03,07,15,46,8.70
2015,03,07,15,47,8.70
2015,03,07,15,48,8.70
2015,03,07,15,49,8.70
2015,03,07,15,50,8.70
2015,03,07,15,51,8.70
2015,03,07,15,52,8.70
2015,03,07,15,53,8.80
2015,03,07,15,54,8.80
2015,03,07,15,55,8.80
2015,03,07,15,56,8.80
2015,03,07,15,57,8.90
2015,03,07,15,58,8.90
2015,03,07,15,59,8.80
2015,03,07,16,00,8.80
2015,03,07,16,01,8.80
2015,03,07,16,02,8.80
2015,03,07,16,03,8.90
2015,03,07,16,04,8.90
2015,03,07,16,05,8.90
2015,03,07,16,06,8.90
2015,03,07,16,07,8.90
2015,03,07,16,08,8.80
2015,03,07,16,09,8.80
2015,03,07,16,10,8.90
2015,03,07,16,11,8.90
2015,03,07,16,12,8.90
2015,03,07,16,13,8.80
2015,03,07,16,14,8.80
2015,03,07,16,15,8.80
2015,03,07,16,16,8.80
2015,03,07,16,17,8.80
2015,03,07,16,18,8.80
2015,03,07,16,19,8.70
2015,03,07,16,20,8.70
2015,03,07,16,21,8.70
2015,03,07,16,22,8.70
2015,03,07,16,23,8.70
2015,03,07,16,24,8.70
2015,03,07,16,25,8.80
2015,03,07,16,26,8.80
2015,03,07,16,27,8.80
2015,03,07,16,28,8.80
2015,03,07,16,29,8.80
2015,03,07,16,30,8.80
2015,03,07,16,31,8.80
2015,03,07,16,32,8.80
2015,03,07,16,33,8.80
2015,03,07,16,34,8.70
2015,03,07,16,35,8.70
2015,03,07,16,36,8.70
2015,03,07,16,37,8.70
2015,03,07,16,38,8.70
2015,03,07,16,39,8.70
2015,03,07,16,40,8.60
2015,03,07,16,41,8.60
2015,03,07,16,42,8.60
2015,03,07,16,43,8.50
2015,03,07,16,44,8.50
2015,03,07,16,45,8.50
2015,03,07,16,46,8.50
2015,03,07,16,47,8.50
2015,03,07,16,48,8.50
2015,03,07,16,49,8.50
2015,03,07,16,50,8.50
2015,03,07,16,51,8.50
2015,03,07,16,52,8.50
2015,03,07,16,53,8.50
2015,03,07,16,54,8.50
2015,03,07,16,55,8.50
2015,03,07,16,56,8.50
2015,03,07,16,57,8.50
2015,03,07,16,58,8.50
2015,03,07,16,59,8.50
2015,03,07,17,00,8.40
2015,03,07,17,01,8.50
2015,03,07,17,02,8.50
2015,03,07,17,03,8.40
2015,03,07,17,04,8.40
2015,03,07,17,05,8.30
2015,03,07,17,06,8.30
2015,03,07,17,07,8.30
2015,03,07,17,08,8.30
2015,03,07,17,09,8.30
2015,03,07,17,10,8.20
2015,03,07,17,11,8.20
2015,03,07,17,12,8.20
2015,03,07,17,13,8.20
2015,03,07,17,14,8.20
2015,03,07,17,15,8.20
2015,03,07,17,16,8.20
2015,03,07,17,17,8.20
2015,03,07,17,18,8.20
2015,03,07,17,19,8.20
2015,03,07,17,20,8.20
2015,03,07,17,21,8.20
2015,03,07,17,22,8.20
2015,03,07,17,23,8.20
2015,03,07,17,24,8.20
2015,03,07,17,25,8.10
2015,03,07,17,26,8.10
2015,03,07,17,27,8.10
2015,03,07,17,28,8.10
2015,03,07,17,29,8.10
2015,03,07,17,30,8.10
2015,03,07,17,31,8.10
2015,03,07,17,32,8.00
2015,03,07,17,33,8.00
2015,03,07,17,34,8.10
2015,03,07,17,35,8.00
2015,03,07,17,36,8.10
2015,03,07,17,37,8.10
2015,03,07,17,38,8.10
2015,03,07,17,39,8.00
2015,03,07,17,40,8.10
2015,03,07,17,41,8.00
2015,03,07,17,42,8.00
2015,03,07,17,43,8.00
2015,03,07,17,44,8.00
2015,03,07,17,45,8.00
2015,03,07,17,46,8.10
2015,03,07,17,47,8.00
2015,03,07,17,48,8.00
2015,03,07,17,49,8.00
2015,03,07,17,50,8.00
2015,03,07,17,51,8.00
2015,03,07,17,52,8.00
2015,03,07,17,53,8.00
2015,03,07,17,54,8.00
2015,03,07,17,55,8.00
2015,03,07,17,56,8.00
2015,03,07,17,57,8.00
2015,03,07,17,58,8.00
2015,03,07,17,59,7.90
2015,03,07,18,00,7.90
2015,03,07,18,01,7.90
2015,03,07,18,02,7.90
2015,03,07,18,03,7.90
2015,03,07,18,04,7.90